Regional Weather Roundup
Issued by NWS

Home | Current Version | Previous Version | Graphics & Text | Print | Product List | Glossary Off
Versions: 1 2 3 4 5 6 7 8 9 10 11 12 13 14 15 16 17 18 19 20 21 22 23 24 25 26 27 28 29 30 31 32 33 34 35 36 37 38 39 40 41 42 43 44 45 46 47 48 49 50

000
ASUS43 KTOP 031808
RWRKS

WEATHER ROUNDUP FOR KANSAS
NATIONAL WEATHER SERVICE GOODLAND KS
100 PM CDT SUN MAY 03 2015

NOTE:  "FAIR" INDICATES FEW OR NO CLOUDS BELOW 12,000 FEET WITH NO
SIGNIFICANT WEATHER AND/OR OBSTRUCTIONS TO VISIBILITY.

KSZ001>006-013>018-027>032-041>047-031900-
NORTHWEST KANSAS

CITY           SKY/WX    TMP DP  RH WIND       PRES   REMARKS
GOODLAND       SUNNY     80  37  21 VRB6      29.89S
6HR MIN TEMP:  49; 6HR MAX TEMP:  81;

HAYS           MOSUNNY   84  45  24 E8        29.81S
HILL CITY      MOSUNNY   86  43  22 MISG      29.81S
6HR MIN TEMP:  54; 6HR MAX TEMP:  87;

RUSSELL        SUNNY     87  44  22 MISG      29.79S
6HR MIN TEMP:  60; 6HR MAX TEMP:  87;

$$

KSZ061>065-074>080-084>089-031900-
SOUTHWEST KANSAS

CITY           SKY/WX    TMP DP  RH WIND       PRES   REMARKS
DODGE CITY     SUNNY     86  40  19 CALM      29.85S
6HR MIN TEMP:  55; 6HR MAX TEMP:  86;

ELKHART          N/A     82  43  25 W13         N/A
GARDEN CITY    MOSUNNY   82  40  22 NW5       29.85F
6HR MIN TEMP:  52; 6HR MAX TEMP:  83;

LIBERAL        SUNNY     81  46  30 SW5       29.90S
PRATT          SUNNY     81  50  34 S10G16    29.86S
$$

KSZ066>073-081>083-090>101-031900-
SOUTHEAST KANSAS

CITY           SKY/WX    TMP DP  RH WIND       PRES   REMARKS
CHANUTE        PTSUNNY   76  57  51 S22G32    29.91S
6HR MIN TEMP:  62; 6HR MAX TEMP:  79; 6HR PCP: TRACE;

COFFEYVILLE    PTSUNNY   77  57  50 S22G28    29.93S
6HR MIN TEMP:  62; 6HR MAX TEMP:  78;

MEDICINE LODGE   N/A     79  57  46 S14       29.84F
NEWTON         MOSUNNY   77  55  47 S16       29.87S
PARSONS        PTSUNNY   78  58  49 S21G29    29.93S
6HR MIN TEMP:  61; 6HR MAX TEMP:  80;

WICHITA INTL   MOSUNNY   80  56  43 S17       29.85S
6HR MIN TEMP:  62; 6HR MAX TEMP:  80;

WICHITA JABRA  MOSUNNY   78  56  46 S20       29.86S
6HR MIN TEMP:  63; 6HR MAX TEMP:  80; 6HR PCP:  0.02;

WICHITA MCCONL MOSUNNY   79  58  47 S20       29.86S
WINFIELD       MOSUNNY   80  57  45 S17G30    29.89F
6HR MIN TEMP:  63; 6HR MAX TEMP:  80;

$$

KSZ007>012-019>026-033>040-048>060-102>105-031900-
NORTHEAST KANSAS

CITY           SKY/WX    TMP DP  RH WIND       PRES   REMARKS
CONCORDIA      SUNNY     82  55  39 S13       29.78S
6HR MIN TEMP:  62; 6HR MAX TEMP:  83;

EMPORIA        MOSUNNY   80  57  45 S15       29.85F
6HR MIN TEMP:  60; 6HR MAX TEMP:  80;

LAWRENCE       MOSUNNY   80  56  43 SW21G35   29.84S
6HR MIN TEMP:  61; 6HR MAX TEMP:  80; 6HR PCP: TRACE;

MANHATTAN      PTSUNNY   79  58  48 S14       29.80F
6HR MIN TEMP:  65; 6HR MAX TEMP:  80;

MARYSVILLE     MOSUNNY   81  59  47 S13G20    29.77F
OLATHE IND     PTSUNNY   75  56  51 SW12G25   29.87S
6HR MIN TEMP:  59; 6HR MAX TEMP:  77;

OLATHE EXE     PTSUNNY   74  56  53 S13G23    29.85F
6HR MIN TEMP:  61; 6HR MAX TEMP:  77; 6HR PCP: TRACE;

SALINA         SUNNY     85  57  38 S14       29.80F
6HR MIN TEMP:  63; 6HR MAX TEMP:  85;

TOPEKA BILLARD MOSUNNY   79  58  48 S20G29    29.83F
6HR MIN TEMP:  63; 6HR MAX TEMP:  79; 6HR PCP:  0.01;

TOPEKA FORBES  MOSUNNY   79  56  45 S23G29    29.83F
6HR MIN TEMP:  63; 6HR MAX TEMP:  80; 6HR PCP:  0.04;

$$



USA.gov is the U.S. government's official web portal to all federal, state and local government web resources and services.